Location: ????????
(38.2386°N, 23.7959°E)
Time: 16:20:34
(UTC+00:00)

Daily predictions for brighter satellites

Satellite Brightness Start Highest point End
(mag) Time Altitude Azimuth Time Altitude Azimuth Time Altitude Azimuth
Landsat 7 4.1 18:15:52 10° SSE 18:20:27 53° ENE 18:25:02 10° N
CZ-3 Stage 3 4.3 18:11:33 10° W 18:22:59 32° SSW 18:26:16 10° SE
Cosmos 1455 Rocket 4.5 18:20:03 10° NNE 18:23:25 22° ENE 18:26:46 10° SE
Okean 1 Rocket 3.1 18:19:04 10° N 18:23:32 68° E 18:27:56 10° SSE
CSL-04 Rocket 4.0 18:18:12 10° S 18:23:43 74° WSW 18:29:17 10° NNW
Cosmos 1607 4.0 18:20:14 10° SSW 18:26:19 57° ESE 18:32:22 10° NE
Cosmos 1553 Rocket 4.4 18:24:00 10° SSW 18:30:21 75° W 18:36:47 10° N
DELTA 2 R/B (1) 3.8 18:25:10 10° W 18:30:40 62° SSW 18:36:12 10° ESE
Cosmos 1953 2.3 18:27:28 10° N 18:31:26 85° W 18:35:23 10° S
CZ-4B R/B 2.1 18:29:54 10° NE 18:32:22 25° E 18:34:50 10° SSE
GENESIS II 4.4 18:31:07 10° NNW 18:35:10 67° ENE 18:39:07 10° SE
Cosmos 1624 Rocket 4.2 18:31:27 10° S 18:36:28 49° ESE 18:41:29 10° NNE
PSLV R/B 4.0 18:34:10 10° NNE 18:38:16 58° E 18:42:22 10° S
GEOS 3 Rocket 3.6 18:33:33 10° SE 18:38:38 80° NE 18:43:46 10° NNW
Meteor 1-24 Rocket 4.2 18:34:11 10° SSE 18:38:58 36° E 18:43:52 10° NNE
Cosmos 407 Rocket 3.6 18:39:10 10° NNW 18:44:17 62° ENE 18:49:09 11° SSE
Cosmos 2251 Rocket 3.8 18:39:11 10° NNW 18:44:32 74° WSW 18:49:52 10° S
Delta 2 Rocket 4.5 18:42:57 10° SSW 18:45:01 16° SSE 18:46:03 14° SE
S3M 4.0 18:40:36 10° S 18:46:49 89° W 18:52:59 10° N
Cosmos 2084 3.2 18:45:03 10° SSW 18:48:54 88° WNW 18:52:46 10° NNE
USA 186 4.4 18:49:16 10° SW 18:51:06 16° W 18:52:59 10° NW
Cosmos 1975 Rocket 3.1 18:48:52 10° S 18:53:16 66° E 18:57:40 10° NNE
Cosmos 1140 Rocket 3.5 18:48:49 10° NNW 18:54:03 83° ENE 18:58:54 12° SSE
H-2A R/B 2.3 18:50:21 10° N 18:54:46 77° WNW 18:59:14 10° SSW
CARTOSAT-1 4.5 18:51:41 14° SE 18:54:49 33° ENE 18:58:42 10° N
Cosmos 1023 Rocket 4.5 18:50:57 10° NNW 18:56:09 90° SW 19:01:01 11° SSE
Cosmos 2056 Rocket 3.5 18:52:00 10° SSW 18:57:21 79° ESE 19:02:46 10° NNE
IRS-1A Rocket 4.4 18:52:35 10° SSE 18:58:29 77° ENE 19:04:23 10° N
Cosmos 1300 3.2 18:55:25 10° NNW 18:59:09 58° W 19:02:50 10° S
Cosmos 1420 Rocket 3.9 18:59:03 10° S 19:04:14 73° ESE 19:09:31 10° NNE
Cosmos 724 4.2 19:01:22 10° SSW 19:07:05 64° ESE 19:12:49 10° NE
Cosmos 1271 Rocket 3.7 19:09:54 10° NNE 19:13:30 32° ENE 19:15:11 23° ESE
Cosmos 1544 Rocket 4.1 19:11:25 10° N 19:15:29 40° ENE 19:17:40 23° SE
Lacrosse 5 rocket 1.8 19:13:01 10° NNW 19:16:47 47° NE 19:19:05 22° ESE
USA 267 3.6 19:11:52 10° ENE 19:17:58 41° SE 19:24:01 10° SSW
SPOT 5 3.7 19:16:09 20° ESE 19:18:19 30° ENE 19:22:08 10° N
Helios 1A Rocket 4.1 19:17:18 20° ESE 19:19:00 27° ENE 19:22:28 10° NNE
Tiangong 1.8 19:16:28 10° WNW 19:19:35 52° N 19:21:39 19° E
Ariane Rocket 3.0 19:15:35 15° SSE 19:19:48 88° WSW 19:24:56 10° NNW
SPOT 1/Viking Rocket 3.8 19:17:59 12° S 19:22:39 69° WSW 19:27:47 10° NNW
USA 32 4.0 19:18:28 14° S 19:22:57 69° E 19:28:08 10° N
X-37B 2.7 19:23:51 10° WNW 19:26:13 24° N 19:28:35 10° NE
Cosmos 1954 Rocket 4.1 19:22:29 10° NNW 19:27:44 66° ENE 19:30:44 25° SSE
Resurs 01 Rocket 2.7 19:28:12 10° SSW 19:32:18 40° W 19:36:31 10° NNW
Cosmos 1455 2.1 19:36:55 10° N 19:40:43 74° E 19:42:02 39° SSE
Terra 2.5 19:42:23 29° ESE 19:44:08 40° ENE 19:48:34 10° N
COSMOS 2406 4.4 19:43:53 23° ESE 19:44:20 24° E 19:48:48 10° NE
Atlas Centaur 2 3.4 19:41:41 10° WSW 19:44:29 15° SSW 19:44:50 15° SSW
TSX-5 4.0 19:42:19 15° SSW 19:45:43 84° ESE 19:50:59 10° NNE
Lacrosse 5 2.3 19:42:07 10° NW 19:47:09 55° NE 19:49:33 29° ESE
Spot 2 Rocket 3.5 19:48:16 32° SSE 19:50:37 73° ENE 19:55:43 10° N
ATLAS 2AS CENTAUR R/B 2.7 19:44:00 10° NNW 19:51:02 78° ENE 19:54:31 31° SE
Cosmos 1980 Rocket 4.4 19:53:20 10° NNE 19:56:14 14° NE 19:59:06 10° E
Cosmos 1452 Rocket 3.4 19:54:55 18° SSW 19:58:50 88° ESE 20:04:07 10° NNE
Cosmos 1697 Rocket 4.0 19:54:08 10° N 19:58:52 27° ENE 20:01:06 21° E
Cosmos 1656 3.8 19:59:07 10° NNW 20:04:33 63° ENE 20:06:29 39° SE
ARIANE 5 R/B 3.1 20:03:39 40° ESE 20:04:34 47° ENE 20:08:50 10° N
Cosmos 1703 3.1 20:04:14 58° S 20:04:55 84° E 20:08:47 10° N
Cosmos 1110 Rocket 3.9 20:07:53 38° S 20:09:53 69° ESE 20:15:09 10° NNE
CZ-2C R/B 3.8 20:10:00 10° N 20:14:33 72° WNW 20:16:29 33° SSW
Cosmos 2074 Rocket 3.9 20:12:13 10° N 20:18:31 87° W 20:21:11 37° S
Cosmos 1328 4.3 20:20:17 47° ENE 20:20:17 47° ENE 20:23:48 10° NNE
Cosmos 1833 Rocket 2.6 20:18:36 29° SSW 20:21:34 88° ESE 20:27:13 10° NNE
NOSS 2-1 (E) 4.3 20:17:29 10° NW 20:22:38 83° WSW 20:25:04 42° SSE
Meteor 1-21 Rocket 4.1 20:21:06 42° S 20:23:05 83° E 20:28:45 10° N
ERS-1 Rocket 3.3 20:23:27 39° SSW 20:25:08 60° W 20:30:08 10° NNW
Cosmos 2228 2.8 20:22:45 10° N 20:27:00 82° E 20:27:15 77° SE
Nadezhda 1 Rocket 3.8 20:26:46 38° S 20:29:16 89° E 20:35:22 10° N
Cosmos 1606 Rocket 3.5 20:32:15 10° N 20:36:30 65° ENE 20:36:30 65° ENE
Cosmos 2360 4.5 20:35:09 10° NNW 20:40:49 57° ENE 20:42:01 48° ESE
Cosmos 2154 Rocket 4.0 20:38:24 10° N 20:44:37 78° W 20:46:31 47° S
Cosmos 1295 Rocket 4.4 20:40:11 10° N 20:46:26 81° W 20:48:12 49° S
Cosmos 968 Rocket 4.5 20:41:46 10° N 20:46:28 34° ENE 20:47:10 32° E
Cosmos 2082 Rocket 2.2 20:46:10 56° ESE 20:46:29 57° ESE 20:52:04 10° NNE
ATLAS 5 CENTAUR R/B 4.2 20:42:14 10° NW 20:47:01 19° W 20:48:19 16° WSW
Cosmos 1610 Rocket 4.4 20:40:54 10° N 20:47:08 83° W 20:48:55 50° S
Cosmos 1741 Rocket 4.1 20:44:27 10° NNW 20:49:45 68° WSW 20:50:33 58° SSW
ASTEX 1 3.2 20:50:26 10° N 20:55:27 79° E 20:55:40 77° SE
Lacrosse 5 rocket 3.5 20:52:47 10° WNW 20:54:36 17° WSW 20:54:36 17° WSW
Tiangong 3.9 20:53:23 10° W 20:53:52 13° W 20:53:52 13° W
Meteor 2-1 Rocket 4.2 20:55:09 10° NNW 21:00:37 71° W 21:01:30 59° SSW
Cosmos 1726 Rocket 3.6 20:56:37 10° N 21:00:33 73° NNW 21:00:33 73° NNW
USA 267 3.9 20:54:41 10° NE 21:01:02 55° NW 21:07:21 10° WSW
Cosmos 1825 4.2 21:03:29 21° NE 21:03:29 21° NE 21:05:04 10° NNE
X-37B 3.4 21:00:01 10° NW 21:01:12 17° NNW 21:01:12 17° NNW
RESURS DK-1 3.4 21:07:31 10° NW 21:10:41 40° WNW 21:10:41 40° WNW
SL-8 Rocket 3.9 21:06:52 10° N 21:13:04 67° E 21:13:53 60° ESE
ALOS 2 4.0 21:16:15 28° ENE 21:16:15 28° ENE 21:19:36 10° N
Terra 3.7 21:21:16 18° WSW 21:22:00 19° W 21:25:22 10° NW
Cosmos 2344 4.4 21:13:09 10° NNW 21:22:41 82° ENE 21:28:41 38° SE
BREEZE-M R/B 4.3 21:07:20 10° NW 21:23:57 49° WSW 21:25:10 45° SSW
Cosmos 2218 Rocket 4.0 21:20:47 10° N 21:27:12 73° E 21:27:59 65° SE
COSMOS 2406 4.1 21:25:53 30° WSW 21:28:17 45° WNW 21:33:48 10° N
Cosmos 1992 Rocket 4.2 21:29:40 62° ENE 21:29:40 62° ENE 21:34:17 10° NNE
Cosmos 2366 rocket 3.9 21:23:13 10° N 21:29:34 75° E 21:30:18 67° SE
Lacrosse 5 3.6 21:25:51 10° WNW 21:28:44 21° WSW 21:28:44 21° WSW
Meteor 1-27 4.2 21:25:05 10° N 21:30:37 63° E 21:30:42 63° E
USA 234 3.7 21:29:36 33° E 21:32:27 57° NE 21:38:51 10° NW
Cosmos 2369 3.6 21:29:03 10° NNW 21:34:50 88° WSW 21:34:58 85° S
SL-16 R/B 4.0 21:30:40 10° N 21:35:01 22° NE 21:36:52 19° E
Cosmos 2341 Rocket 4.1 21:30:37 10° NNW 21:36:53 66° W 21:37:44 59° SW
Cosmos 1892 4.3 21:38:17 31° NW 21:38:17 31° NW 21:40:43 10° N
Cosmos 2058 Rocket 3.8 21:33:10 10° NNW 21:36:44 50° NW 21:36:44 50° NW
ATLAS 2AS CENTAUR R/B 4.4 21:36:51 10° WNW 21:40:59 17° WSW 21:41:57 17° WSW
Cosmos 1980 Rocket 2.1 21:35:18 10° NNW 21:41:01 89° WSW 21:41:03 89° SW
Cosmos 1697 Rocket 3.4 21:37:42 10° NW 21:42:50 40° WSW 21:42:50 40° WSW
Cosmos 1626 Rocket 4.3 21:49:36 49° NNW 21:49:36 49° NNW 21:52:52 10° N
In-Cosmos 22 Rocket 4.5 21:50:56 55° W 21:51:21 56° WNW 21:56:47 10° N
Cosmos 1959 Rocket 4.3 21:46:50 10° N 21:52:55 74° W 21:53:19 71° SW
Spot 4 4.5 22:00:14 49° WNW 22:00:14 49° WNW 22:04:09 10° NNW
Cosmos 1867 3.6 21:54:53 10° NNW 22:00:06 76° NNE 22:00:06 76° NNE
Meteor 2-20 4.3 22:05:21 82° SE 22:05:32 84° E 22:11:40 10° N
ATLAS 5 CENTAUR R/B 3.0 22:10:08 31° N 22:10:08 31° N 22:12:33 10° NNE
Cosmos 2322 Rocket 3.5 22:08:35 10° N 22:13:37 32° ENE 22:14:59 28° E
SJ 16-02 2.8 22:12:49 10° N 22:16:14 30° NE 22:16:14 30° NE
Cosmos 2278 3.7 22:13:25 10° NNW 22:18:44 71° WNW 22:18:44 71° WNW
Cosmos 1821 Rocket 3.8 22:19:43 10° N 22:25:59 82° W 22:26:11 80° SW
Cosmos 2082 Rocket 4.2 22:27:58 14° W 22:30:56 21° NW 22:35:11 10° N
ADEOS Rocket 3.5 22:30:43 56° SW 22:31:37 60° W 22:39:04 10° NNW
Meteor 2-20 Rocket 4.3 22:32:13 81° WSW 22:32:26 83° W 22:38:35 10° N
Nimbus 7 Rocket 4.3 22:28:13 10° NNE 22:34:10 89° ESE 22:34:19 86° S
Nadezhda 3 Rocket 4.0 22:37:36 64° W 22:37:56 65° W 22:44:03 10° N
Cosmos 2221 4.1 22:37:22 10° NNE 22:40:33 29° ENE 22:40:33 29° ENE
CENTAUR R/B 4.4 22:42:43 13° E 22:42:43 13° E 22:44:57 10° ENE
ERS-2 4.3 22:39:39 10° N 22:41:23 23° NNW 22:41:23 23° NNW
Cosmos 2360 Rocket 3.1 22:47:07 10° N 22:52:29 41° ENE 22:53:49 36° E
Cosmos 2237 4.3 22:48:06 10° NNW 22:53:49 66° ENE 22:54:11 64° E
Cosmos 44 4.4 22:56:40 35° ENE 22:56:40 35° ENE 22:59:34 10° NE
PSLV R/B 4.5 22:51:33 10° N 22:55:33 48° NW 22:55:33 48° NW
SL-4 R/B 4.2 22:58:56 19° NE 22:58:56 19° NE 23:00:08 10° NE
USA 234 4.0 23:16:55 35° W 23:16:55 35° W 23:21:37 10° WNW
SL-16 R/B 2.6 23:13:56 10° NNW 23:18:41 49° W 23:18:41 49° W
Meteor 2-11 Rocket 4.3 23:13:31 10° N 23:19:37 75° W 23:19:57 72° SW
Cosmos 1763 Rocket 4.0 23:21:34 50° E 23:21:34 50° E 23:26:25 10° NNE
CZ-2D R/B 2.9 23:26:42 10° NNE 23:31:33 38° E 23:31:56 38° ESE
Cosmos 2219 Rocket 3.4 23:26:58 10° N 23:32:14 37° ENE 23:35:27 21° ESE
SL-16 R/B 3.9 23:29:32 16° ESE 23:33:42 34° ENE 23:39:13 10° N
Gbstr 26 Del rocket 3.7 23:34:00 52° NW 23:34:19 53° NNW 23:39:36 10° NE
Resurs 1-4 Rocket 2.7 23:31:21 10° NNE 23:36:28 45° E 23:36:57 44° ESE
Cosmos 1076 Rocket 4.0 23:37:48 59° N 23:37:48 59° N 23:41:25 10° N
MOZ.5/SAFIR/RUBIN 5/SL-8 3.8 23:40:12 77° ENE 23:40:12 77° ENE 23:44:52 10° N
Cosmos 468 Rocket 4.0 23:40:28 67° ESE 23:40:35 67° ESE 23:45:52 10° NNE
Geosat 3.8 23:46:27 84° WSW 23:46:27 84° WSW 23:51:31 10° NNW
Cosmos 972 Rocket 4.3 23:45:55 10° NNW 23:50:43 54° W 23:50:43 54° W
Cosmos 1727 Rocket 3.9 23:50:44 61° SSW 23:51:54 82° W 23:58:16 10° N
Meteor 2-3 Rocket 3.8 23:53:02 58° WSW 23:53:29 60° W 23:59:02 10° N
SJ 16-02 3.5 23:51:50 10° NW 23:53:10 16° WNW 23:53:10 16° WNW
